{"data":{"norad_id":56055,"epoch":"2026-09-20T04:16:30.291168Z","epoch_age_seconds":46043,"freshness":"FRESH","line1":"1 56055U 23043K   26263.17812837  .00000007  00000+0 -15967-4 0  9998","line2":"2 56055  87.9156 209.9154 0001944  90.4962 269.6391 13.16595940171476","mean_motion":13.1659594,"eccentricity":0.0001944,"inclination_deg":87.9156,"raan_deg":209.9154,"arg_perigee_deg":90.4962,"mean_anomaly_deg":269.6391,"bstar":-1.5967e-5,"rev_number":17147,"period_min":109.37296373556,"perigee_km":1196.2774584597,"apogee_km":1199.2229634073,"semimajor_km":7575.8872109335,"source":"CELESTRAK","updated_at":"2026-09-20T09:00:44.788253Z"}}